This is the latest recevied weather packets stored in our database for station/object KR4DFQ. If no packets are shown the sender has not sent any weather packets the latest 10 day(s).
| Time | Temp. | Humidity | Pressure | Rain* | Wind** | Luminosity | Snow |
|---|---|---|---|---|---|---|---|
| 1787693187 | 31.11° C | 64% | 1016 hPa | 0 mm | - | 131 W/m² | - |
| 1787692882 | 31.11° C | 64% | 1016.2 hPa | 0 mm | - | 134 W/m² | - |
| 1787692582 | 31.67° C | 63% | 1016.3 hPa | 0 mm | - | 138 W/m² | - |
| 1787692282 | 31.67° C | 64% | 1016.3 hPa | 0 mm | - | 143 W/m² | - |
| 1787691977 | 31.67° C | 65% | 1016.2 hPa | 0 mm | - | 147 W/m² | - |
| 1787691676 | 31.11° C | 66% | 1016.1 hPa | 0 mm | - | 150 W/m² | - |
| 1787691374 | 31.67° C | 65% | 1016.3 hPa | 0 mm | - | 155 W/m² | - |
| 1787691069 | 31.67° C | 66% | 1016.3 hPa | 0 mm | - | 160 W/m² | - |
| 1787690764 | 31.67° C | 66% | 1016.2 hPa | 0 mm | - | 164 W/m² | - |
| 1787690459 | 31.67° C | 66% | 1015.8 hPa | 0 mm | - | 169 W/m² | - |
| 1787690155 | 31.67° C | 66% | 1015.9 hPa | 0 mm | - | 178 W/m² | - |
| 1787689851 | 31.67° C | 66% | 1015.8 hPa | 0 mm | - | 183 W/m² | - |
| 1787689546 | 31.67° C | 65% | 1015.8 hPa | 0 mm | - | 188 W/m² | - |
| 1787689241 | 31.67° C | 65% | 1015.7 hPa | 0 mm | - | 196 W/m² | - |
| 1787688937 | 31.67° C | 65% | 1015.6 hPa | 0 mm | - | 202 W/m² | - |
| 1787688633 | 31.67° C | 65% | 1015.6 hPa | 0 mm | - | 206 W/m² | - |
| 1787688332 | 32.22° C | 64% | 1015.6 hPa | 0 mm | - | 213 W/m² | - |
| 1787688028 | 32.22° C | 64% | 1015.6 hPa | 0 mm | - | 225 W/m² | - |
| 1787687723 | 32.78° C | 60% | 1015.8 hPa | 0 mm | - | 217 W/m² | - |
| 1787687418 | 33.33° C | 60% | 1016.1 hPa | 0 mm | - | 184 W/m² | - |
| 1787687114 | 33.89° C | 59% | 1016 hPa | 0 mm | - | 473 W/m² | - |
| 1787686815 | 34.44° C | 59% | 1016.3 hPa | 0 mm | - | 768 W/m² | - |
| 1787686510 | 34.44° C | 58% | 1016.1 hPa | 0 mm | - | 775 W/m² | - |
| 1787686205 | 33.89° C | 60% | 1016.3 hPa | 0 mm | - | 460 W/m² | - |
| 1787685901 | 33.89° C | 59% | 1016.3 hPa | 0 mm | - | 797 W/m² | - |
* Rain latest hour (hover to see other rain measurements)
** Current wind speed in m/s (hover to see current wind gust speed)